Location: Oak Glen
(34.0495°N, 116.9470°E)
Time: 17:15:38
(UTC-07:00)

Tiangong 2 - Pass Details

Date: 07 October 2017
Orbit: 388 x 391 km, 42.8° (Epoch: 23 October)

Event Time Altitude Azimuth Distance (km) Brightness Sun altitude
Exits shadow 12:59:26 14° 110° (ESE) 1,217 4.2 -28.1°
Drops below altitude 10° 13:00:14 10° 97° (E) 1,413 4.8 -27.9°
Sets 13:02:47 0° 76° (ENE) 2,272 6.3 -27.4°
